Content
SEND FEEDBACK

Daily
Averages
Monthly
Summary
United States of America

MERIZO, GUAM


Home > North America > United States > Guam
Elevation: 3 meters     Latitude: 13 14N     Longitude: 144 39E

WEATHER
 
SELECT A DAY
Number of Records: 341,794;   Date Range: 1/1/95 - 7/23/14
 
SHARE

PRINT THIS DATA

[ ← Previous Day ]
WEATHER ALMANAC - 21 JUNE, 2013
[ Next Day → ]
[ °F ]   °C
Weather ElementAverageHighLow
Temperature27.9 °C31.1 °C (1:55 pm)25.8 °C (12:55 am)
Dewpoint25.1 °C26 °C (12:40 am)24 °C (8:28 pm)
Humidity85.3 %94 % (12:40 am)70 % (11:38 am)
Barometer1011.2 hPa1012.5 hPa (10:41 pm)1010.2 hPa (2:57 pm)
Wind Speed24 km/h33.3 km/h (10:25 am)
Wind Gust37 km/h (12:49 am)
Weather ElementAverage
Visibility15.8 km
Wind DirectionENE (72.4 °)

Weather ElementTotal
Precipitation1.52 mm
Cooling Degree Days10.1 (Base 18.3)
Growing Degree Days18.4 (Base 10)
Averaged from 90 records on 21 June, 2013
WEATHER CONDITIONS BREAKOUT
WIND DIRECTION BREAKOUT
WEATHER BY HOUR - 21 JUNE, 2013
[ °F ]   °C
Local TimeTemperatureDewpointHumidityBarometerVisibilityWind DirectionWind SpeedGust SpeedPrecipitationEventsConditions
12:29 AM27 °C25 °C89 %1011.2 hPa14.5 kmENE (70°)18.5 km/hLight Drizzle
12:40 AM27 °C26 °C94 %1011.2 hPa12.9 kmEast (80°)20.4 km/hRainLight Rain
12:42 AM27 °C26 °C94 %1011.2 hPa16.1 kmEast (80°)18.5 km/hMostly Cloudy
12:49 AM27 °C26 °C94 %1011.2 hPa11.3 kmENE (70°)29.6 km/h37 km/hRainLight Rain
12:55 AM25.8 °C24.4 °C92 %1011.2 hPa6.4 kmEast (80°)18.5 km/h37 km/h1.02 mmRainLight Rain
1:03 AM26 °C25 °C94 %1011.2 hPa16.1 kmEast (80°)16.7 km/hScattered Clouds
1:12 AM26 °C25 °C94 %1011.2 hPa16.1 kmENE (70°)16.7 km/hMostly Cloudy
1:15 AM26 °C25 °C94 %1011.2 hPa16.1 kmENE (70°)16.7 km/hMostly Cloudy
1:19 AM26 °C25 °C94 %1011.2 hPa16.1 kmENE (60°)20.4 km/hMostly Cloudy
1:21 AM26 °C25 °C94 %1010.8 hPa16.1 kmENE (70°)20.4 km/hScattered Clouds
1:55 AM26.4 °C25.1 °C93 %1010.5 hPa16.1 kmENE (70°)24.1 km/h0 mmPartly Cloudy
2:16 AM26 °C25 °C94 %1010.5 hPa16.1 kmEast (80°)18.5 km/hLight Drizzle
2:21 AM26 °C25 °C94 %1010.5 hPa16.1 kmEast (80°)20.4 km/hLight Drizzle
2:26 AM26 °C25 °C94 %1010.5 hPa16.1 kmEast (80°)22.2 km/hLight Drizzle
2:28 AM26 °C25 °C94 %1010.5 hPa16.1 kmENE (70°)22.2 km/hMostly Cloudy
2:36 AM26 °C25 °C94 %1010.5 hPa16.1 kmENE (60°)25.9 km/hMostly Cloudy
2:39 AM26 °C25 °C94 %1010.5 hPa16.1 kmENE (70°)22.2 km/hScattered Clouds
2:55 AM26.2 °C25 °C93 %1010.5 hPa16.1 kmENE (70°)18.5 km/h0 mmScattered Clouds
3:55 AM26 °C24.9 °C94 %1010.5 hPa16.1 kmENE (70°)18.5 km/hPartly Cloudy
4:08 AM26 °C25 °C94 %1010.5 hPa9.7 kmNE (50°)27.8 km/h37 km/hRainLight Rain
4:19 AM26 °C25 °C94 %1010.5 hPa16.1 kmENE (70°)22.2 km/hScattered Clouds
4:55 AM26.1 °C25 °C94 %1010.5 hPa16.1 kmENE (70°)22.2 km/h0.51 mmScattered Clouds
4:56 AM26 °C25 °C94 %1010.5 hPa16.1 kmENE (70°)22.2 km/hMostly Cloudy
5:02 AM26 °C25 °C94 %1010.8 hPa16.1 kmENE (60°)22.2 km/hScattered Clouds
5:19 AM26 °C25 °C94 %1010.8 hPa16.1 kmENE (60°)22.2 km/hMostly Cloudy
5:35 AM26 °C25 °C94 %1010.8 hPa16.1 kmENE (60°)20.4 km/hScattered Clouds
5:45 AM26 °C25 °C94 %1010.8 hPa16.1 kmENE (70°)20.4 km/hMostly Cloudy
5:50 AM26 °C25 °C94 %1010.8 hPa16.1 kmENE (70°)18.5 km/hScattered Clouds
5:55 AM26.2 °C24.8 °C92 %1011.2 hPa16.1 kmENE (60°)20.4 km/hPartly Cloudy
6:03 AM26 °C25 °C94 %1011.2 hPa16.1 kmENE (70°)20.4 km/hMostly Cloudy
6:11 AM26 °C25 °C94 %1011.2 hPa16.1 kmENE (70°)22.2 km/hScattered Clouds
6:24 AM26 °C25 °C94 %1011.2 hPa16.1 kmENE (70°)24.1 km/hMostly Cloudy
6:26 AM27 °C25 °C89 %1011.2 hPa12.9 kmENE (70°)22.2 km/hRainLight Rain
6:33 AM27 °C25 °C89 %1011.2 hPa12.9 kmENE (60°)24.1 km/hRainLight Rain
6:36 AM27 °C25 °C89 %1011.2 hPa16.1 kmENE (60°)24.1 km/hScattered Clouds
6:55 AM26.6 °C24.9 °C90 %1011.5 hPa16.1 kmENE (70°)22.2 km/h0 mmPartly Cloudy
7:22 AM27 °C25 °C89 %1011.9 hPa16.1 kmENE (70°)20.4 km/hMostly Cloudy
7:32 AM28 °C25 °C84 %1011.9 hPa16.1 kmENE (70°)27.8 km/h37 km/hScattered Clouds
7:44 AM27 °C25 °C89 %1011.9 hPa16.1 kmEast (80°)25.9 km/hMostly Cloudy
7:46 AM28 °C25 °C84 %1011.9 hPa16.1 kmENE (70°)25.9 km/hScattered Clouds
7:55 AM28.1 °C25.1 °C84 %1011.9 hPa16.1 kmEast (80°)25.9 km/hPartly Cloudy
8:55 AM28.3 °C25.1 °C83 %1012.2 hPa16.1 kmEast (80°)25.9 km/hScattered Clouds
8:59 AM28 °C25 °C84 %1012.2 hPa16.1 kmEast (80°)27.8 km/hMostly Cloudy
9:04 AM29 °C25 °C79 %1012.2 hPa16.1 kmENE (70°)27.8 km/hScattered Clouds
9:55 AM29.9 °C25.1 °C75 %1012.2 hPa16.1 kmENE (70°)29.6 km/hPartly Cloudy
10:19 AM30 °C25 °C74 %1012.2 hPa16.1 kmENE (70°)31.5 km/hMostly Cloudy
10:25 AM30 °C26 °C79 %1012.2 hPa16.1 kmEast (80°)33.3 km/hScattered Clouds
10:55 AM30.6 °C25.6 °C74 %1012.2 hPa16.1 kmENE (70°)29.6 km/hScattered Clouds
11:38 AM31 °C25 °C70 %1011.9 hPa16.1 kmENE (70°)31.5 km/hMostly Cloudy
11:46 AM31 °C25 °C70 %1011.9 hPa16.1 kmENE (70°)27.8 km/hScattered Clouds
11:53 AM30 °C25 °C74 %1011.9 hPa16.1 kmENE (70°)31.5 km/hMostly Cloudy
11:55 AM29.9 °C25.4 °C77 %1011.9 hPa16.1 kmENE (70°)33.3 km/hMostly Cloudy
12:01 PM30 °C25 °C74 %1011.9 hPa16.1 kmENE (70°)31.5 km/hScattered Clouds
12:55 PM31 °C25.6 °C73 %1011.2 hPa16.1 kmENE (70°)27.8 km/hScattered Clouds
12:57 PM31 °C26 °C75 %1011.2 hPa16.1 kmENE (70°)29.6 km/hMostly Cloudy
1:01 PM31 °C26 °C75 %1011.2 hPa16.1 kmEast (80°)27.8 km/hMostly Cloudy
1:03 PM30 °C26 °C79 %1011.2 hPa16.1 kmENE (70°)27.8 km/hMostly Cloudy
1:05 PM30 °C26 °C79 %1011.2 hPa16.1 kmENE (70°)25.9 km/hMostly Cloudy
1:55 PM31.1 °C25.8 °C73 %1010.5 hPa16.1 kmENE (70°)24.1 km/hScattered Clouds
2:07 PM31 °C26 °C75 %1010.5 hPa16.1 kmENE (70°)24.1 km/h35.2 km/hMostly Cloudy
2:10 PM31 °C26 °C75 %1010.5 hPa16.1 kmEast (80°)25.9 km/h35.2 km/hScattered Clouds
2:11 PM31 °C26 °C75 %1010.5 hPa16.1 kmEast (80°)25.9 km/hMostly Cloudy
2:22 PM31 °C26 °C75 %1010.5 hPa16.1 kmENE (70°)25.9 km/hScattered Clouds
2:28 PM31 °C26 °C75 %1010.5 hPa16.1 kmENE (70°)27.8 km/hMostly Cloudy
2:51 PM31 °C25 °C70 %1010.5 hPa16.1 kmENE (70°)31.5 km/hMostly Cloudy
2:55 PM30.8 °C25.5 °C73 %1010.5 hPa16.1 kmEast (80°)24.1 km/hMostly Cloudy
2:57 PM31 °C26 °C75 %1010.2 hPa16.1 kmEast (80°)24.1 km/hScattered Clouds
3:55 PM30 °C25 °C74 %1010.2 hPa16.1 kmEast (90°)25.9 km/h35.2 km/hScattered Clouds
4:54 PM30 °C25 °C74 %1010.2 hPa16.1 kmEast (90°)18.5 km/hMostly Cloudy
4:55 PM29.5 °C25.2 °C78 %1010.2 hPa16.1 kmEast (90°)20.4 km/hMostly Cloudy
4:59 PM30 °C25 °C74 %1010.2 hPa16.1 kmEast (90°)25.9 km/hScattered Clouds
5:55 PM28.8 °C24.7 °C78 %1010.5 hPa16.1 kmEast (90°)24.1 km/hScattered Clouds
6:55 PM27.7 °C25.1 °C86 %1010.8 hPa16.1 kmEast (80°)22.2 km/hScattered Clouds
7:45 PM28 °C25 °C84 %1011.2 hPa16.1 kmEast (80°)22.2 km/hMostly Cloudy
7:55 PM27.5 °C24.6 °C84 %1011.2 hPa16.1 kmENE (70°)24.1 km/hMostly Cloudy
8:28 PM27 °C24 °C84 %1011.5 hPa16.1 kmEast (80°)22.2 km/hScattered Clouds
8:55 PM27.4 °C24.5 °C84 %1011.9 hPa16.1 kmENE (70°)27.8 km/hScattered Clouds
8:58 PM27 °C24 °C84 %1011.9 hPa16.1 kmEast (80°)25.9 km/hMostly Cloudy
9:00 PM27 °C24 °C84 %1011.9 hPa16.1 kmEast (80°)24.1 km/hScattered Clouds
9:55 PM27.2 °C24.7 °C86 %1012.2 hPa16.1 kmENE (70°)18.5 km/hPartly Cloudy
10:30 PM27 °C25 °C89 %1012.2 hPa16.1 kmENE (70°)20.4 km/hMostly Cloudy
10:34 PM27 °C25 °C89 %1012.2 hPa16.1 kmENE (70°)22.2 km/hScattered Clouds
10:41 PM27 °C25 °C89 %1012.5 hPa16.1 kmENE (60°)25.9 km/hMostly Cloudy
10:55 PM27.4 °C24.8 °C86 %1012.5 hPa16.1 kmENE (60°)22.2 km/hMostly Cloudy
11:00 PM27 °C25 °C89 %1012.2 hPa16.1 kmENE (70°)20.4 km/hScattered Clouds
11:31 PM27 °C25 °C89 %1012.2 hPa16.1 kmEast (80°)25.9 km/hMostly Cloudy
11:32 PM27 °C25 °C89 %1012.2 hPa16.1 kmEast (80°)24.1 km/hScattered Clouds
11:43 PM27 °C25 °C89 %1012.2 hPa16.1 kmENE (70°)22.2 km/hMostly Cloudy
11:54 PM27 °C24 °C84 %1012.2 hPa16.1 kmENE (70°)18.5 km/hScattered Clouds
11:55 PM27.1 °C24.5 °C86 %1012.2 hPa16.1 kmENE (70°)20.4 km/hScattered Clouds
Hourly data recorded from PGUA, located 0 kilometers away from Merizo, Guam







STORIES FROM OUR PARTNERS